This demonstration page uses our WeatherBlox Daily Observations layout. Learn more.

Left ArrowRight Arrow

Hourly Observations for May 22, 2021

Temp ( °F °C ) Dew Point ( °F °C ) Humidity (%) Winds ( mph kmh ) Pressure ( in mb ) Visibility ( mi km ) Precip ( " mm )
12:15 am 00:15 Clear 63 17.1 56 13.6 80 80 Calm 30.38 1029 10 16 0.00 0.00
12:35 am 00:35 Clear 61 16.1 57 13.7 86 86 Calm 30.38 1029 10 16 0.00 0.00
12:55 am 00:55 Clear 61 16 56 13.2 84 84 Calm 30.39 1029 10 16 0.00 0.00
1:15 am 01:15 Clear 60 15.6 56 13.1 85 85 Calm 30.39 1029 10 16 0.00 0.00
1:35 am 01:35 Clear 61 16.2 56 13.1 82 82 Calm 30.39 1029 10 16 0.00 0.00
1:55 am 01:55 Clear 60 15.6 56 13.1 85 85 Calm 30.39 1029 10 16 0.00 0.00
2:15 am 02:15 Clear 60 15.3 55 12.9 86 86 Calm 30.39 1029 10 16 0.00 0.00
2:35 am 02:35 Clear 60 15.6 55 13 85 85 Calm 30.38 1029 10 16 0.00 0.00
2:55 am 02:55 Clear 59 15.2 56 13.1 87 87 Calm 30.38 1029 10 16 0.00 0.00
3:15 am 03:15 Clear 59 15.1 56 13.1 88 88 Calm 30.38 1029 10 16 0.00 0.00
3:35 am 03:35 Clear 59 14.9 56 13.2 90 90 Calm 30.37 1029 10 16 0.00 0.00
3:55 am 03:55 Clear 59 15.2 56 13.2 88 88 Calm 30.37 1029 10 16 0.00 0.00
4:15 am 04:15 Clear 58 14.5 55 12.9 90 90 Calm 30.38 1029 10 16 0.00 0.00
4:35 am 04:35 Clear 58 14.6 55 12.9 90 90 Calm 30.38 1029 10 16 0.00 0.00
4:55 am 04:55 Clear 59 14.9 56 13.4 91 91 Calm 30.38 1029 10 16 0.00 0.00
5:15 am 05:15 Clear 59 14.8 55 12.9 88 88 Calm 30.39 1029 10 16 0.00 0.00
5:35 am 05:35 Clear 59 14.8 56 13.3 91 91 Calm 30.39 1029 10 16 0.00 0.00
5:55 am 05:55 Clear 58 14.7 56 13.4 92 92 Calm 30.39 1029 10 16 0.00 0.00
6:15 am 06:15 Clear 59 14.8 56 13.5 92 92 Calm 30.40 1030 10 16 0.00 0.00
6:35 am 06:35 Sunny 60 15.3 56 13.2 87 87 Calm 30.40 1030 10 16 0.00 0.00
6:55 am 06:55 Sunny 59 15 57 13.7 92 92 Calm 30.41 1030 10 16 0.00 0.00
7:15 am 07:15 Sunny 59 15 57 13.7 92 92 Calm 30.42 1030 10 16 0.00 0.00
7:35 am 07:35 Sunny 60 15.5 57 13.9 90 90 Calm 30.42 1030 10 16 0.00 0.00
7:55 am 07:55 Sunny 61 16.2 57 14.1 87 87 Calm 30.43 1030 10 16 0.00 0.00
8:15 am 08:15 Sunny 63 17 58 14.7 86 86 Calm 30.43 1030 10 16 0.00 0.00
8:35 am 08:35 Sunny 65 18.1 59 15.1 83 83 Calm 30.42 1030 10 16 0.00 0.00
8:55 am 08:55 Sunny 66 19 60 15.3 79 79 Calm 30.43 1030 10 16 0.00 0.00
9:15 am 09:15 Sunny 67 19.7 59 15.1 75 75 Calm 30.43 1030 10 16 0.00 0.00
9:35 am 09:35 Sunny 69 20.8 57 14.1 66 66 SW 3 6 30.42 1030 10 16 0.00 0.00
9:55 am 09:55 Sunny 71 21.6 58 14.4 64 64 SW 5 7 30.41 1030 10 16 0.00 0.00
10:15 am 10:15 Sunny 72 22.2 57 14 60 60 SW 7 11 30.41 1030 10 16 0.00 0.00
10:35 am 10:35 Sunny 74 23.1 58 14.4 58 58 WSW 6 9 30.41 1030 10 16 0.00 0.00
10:55 am 10:55 Sunny 74 23.2 58 14.2 57 57 SW 5 7 30.40 1029 10 16 0.00 0.00
11:15 am 11:15 Sunny 74 23.5 57 14.1 56 56 WSW 7 11 30.39 1029 10 16 0.00 0.00
11:35 am 11:35 Sunny 76 24.5 57 14.1 52 52 SW 6 9 30.39 1029 10 16 0.00 0.00
11:55 am 11:55 Sunny 76 24.5 57 13.8 51 51 SW 7 11 30.39 1029 10 16 0.00 0.00
12:15 pm 12:15 Sunny 77 24.8 57 13.7 50 50 SW 7 11 30.39 1029 10 16 0.00 0.00
12:35 pm 12:35 Sunny 77 25 57 13.8 50 50 SW 6 9 30.38 1029 10 16 0.00 0.00
12:55 pm 12:55 Sunny 79 25.9 56 13.6 47 47 W 10 17 30.38 1029 10 16 0.00 0.00
1:15 pm 13:15 Sunny 79 26.1 56 13.2 45 45 WNW 9 15 30.37 1028 10 16 0.00 0.00
1:35 pm 13:35 Sunny 79 26.3 55 13 44 44 WSW 8 13 30.36 1028 10 16 0.00 0.00
1:55 pm 13:55 Sunny 79 26.3 56 13.3 45 45 SW 8 13 30.35 1028 10 16 0.00 0.00
2:15 pm 14:15 Sunny 80 26.5 55 12.9 43 43 WSW 6 9 30.34 1028 10 16 0.00 0.00
2:35 pm 14:35 Sunny 80 26.8 56 13.1 43 43 WSW 5 7 30.33 1027 10 16 0.00 0.00
2:55 pm 14:55 Sunny 81 27 56 13.2 43 43 WSW 9 15 30.32 1027 10 16 0.00 0.00
3:15 pm 15:15 Sunny 82 27.7 53 11.8 37 37 WSW 12 19 30.31 1026 10 16 0.00 0.00
3:35 pm 15:35 Sunny 82 27.8 54 12 38 38 SW 9 15 30.30 1026 10 16 0.00 0.00
3:55 pm 15:55 Sunny 82 27.8 54 12 38 38 SW 7 11 30.30 1026 10 16 0.00 0.00
4:15 pm 16:15 Sunny 82 28 54 12.3 38 38 W 12 19 30.29 1026 10 16 0.00 0.00
4:35 pm 16:35 Sunny 83 28.4 56 13.5 40 40 WSW 8 13 30.28 1025 10 16 0.00 0.00
4:55 pm 16:55 Sunny 83 28.1 55 13 39 39 SW 8 13 30.27 1025 10 16 0.00 0.00
5:15 pm 17:15 Partly Cloudy 82 27.9 55 12.9 40 40 WSW 7 11 30.27 1025 10 16 0.00 0.00
5:35 pm 17:35 Partly Cloudy 83 28.3 55 12.8 38 38 WSW 9 15 30.27 1025 10 16 0.00 0.00
5:55 pm 17:55 Mostly Cloudy 82 28 55 12.9 39 39 WSW 12 19 30.26 1025 10 16 0.00 0.00
6:15 pm 18:15 Partly Cloudy 83 28.3 55 13 39 39 SW 7 11 30.26 1025 10 16 0.00 0.00
6:35 pm 18:35 Partly Cloudy 81 27 56 13.4 43 43 WSW 7 11 30.25 1024 10 16 0.00 0.00
6:55 pm 18:55 Partly Cloudy 82 27.6 56 13.4 42 42 WSW 8 13 30.24 1024 10 16 0.00 0.00
7:15 pm 19:15 Partly Cloudy 82 27.6 56 13.6 42 42 WSW 7 11 30.24 1024 10 16 0.00 0.00
7:35 pm 19:35 Partly Cloudy 81 27 57 13.7 44 44 WSW 9 15 30.24 1024 10 16 0.00 0.00
7:55 pm 19:55 Sunny 80 26.5 56 13.4 44 44 WSW 10 17 30.24 1024 10 16 0.00 0.00
8:15 pm 20:15 Sunny 78 25.8 57 13.9 48 48 WSW 6 9 30.25 1024 10 16 0.00 0.00
8:35 pm 20:35 Sunny 77 25.1 56 13.5 49 49 WSW 7 11 30.25 1024 10 16 0.00 0.00
8:55 pm 20:55 Sunny 75 23.7 57 13.7 54 54 WSW 6 9 30.25 1025 10 16 0.00 0.00
9:15 pm 21:15 Clear 73 23 56 13.5 55 55 WSW 6 9 30.26 1025 10 16 0.00 0.00
9:35 pm 21:35 Clear 72 22.3 56 13.5 58 58 WSW 6 9 30.27 1025 10 16 0.00 0.00
9:55 pm 21:55 Clear 71 21.5 56 13.2 59 59 WSW 6 9 30.27 1025 10 16 0.00 0.00
10:15 pm 22:15 Clear 70 20.9 56 13.2 62 62 WSW 6 9 30.27 1025 10 16 0.00 0.00
10:35 pm 22:35 Clear 69 20.7 55 13 62 62 WSW 6 9 30.27 1025 10 16 0.00 0.00
10:55 pm 22:55 Clear 68 20.2 55 13 63 63 WSW 6 9 30.28 1025 10 16 0.00 0.00
11:15 pm 23:15 Clear 68 19.9 56 13.2 65 65 SW 5 7 30.28 1025 10 16 0.00 0.00
11:35 pm 23:35 Clear 67 19.3 56 13.5 69 69 WSW 5 7 30.28 1025 10 16 0.00 0.00
11:55 pm 23:55 Clear 67 19.6 56 13.3 67 67 WSW 6 9 30.27 1025 10 16 0.00 0.00

Powered by AerisWeather